Find Optus B1

NORAD ID: 22087 Int'l Des: 1992-054 Owner: OPT Country: AU operational
HEOCIRCULAR

Current View

Loading 3D Globe...

About Optus B1

Description loading...

Upcoming Passes

Passes for default location (London). Set your location on the main map for personalized predictions.

Altitude History

Loading altitude history...

Two-Line Element Set

1 22087U 92054A 26149.22197534 .00000076 00000-0 00000+0 0 9996
2 22087 12.9149 24.2599 0007853 113.7431 248.6899 0.99201553134526
Epoch: May 29, 2026 • Age: 22 hours

Current Status

Altitude 36115.0 km
Velocity 3.06 km/s
Sub-Earth Point -5.66°S, 56.97°E
Launch Date Aug 13, 1992
Age 33.7 years
Type other

Technical Details

Classification Payload
Mass 2900.00 kg
Dry Mass 1200.00 kg
Total Mass 2900.00 kg
Length 2.30 m
Diameter 2.30 m
Span 20.60 m
Shape Box + 2 Pan
Manufacturer HSES
Bus Type HS-601
Phase Status In Orbit
Owner/State OPT/AU

Most Searched